Temp
-16 -15 -15 -15 -15 -15 -15 -14 -15 -15 -14 -12 -11 -10 -10 -10 -9 -10 -10 -10 -10 -9 -10 -11 -10 -10 -9 -10 -10 -9 -9 -9 -9 -9 -9 -9 -9 -9 -9 -10 -10 -10 -10 -10 -10
-16 -16 -16 -15 -16 -16 -15 -15 -14 -16 -15 -14 -12 -11 -10 -10 -10 -9 -10 -10 -10 -10 -10 -11 -10 -10 -9 -9 -9 -9 -9 -9 -9 -10 -10 -9 -9 -9 -10 -10 -10 -10 -10 -10 -10
-16 -15 -16 -15 -16 -16 -16 -16 -16 -15 -16 -15 -13 -12 -11 -11 -10 -9 -10 -11 -10 -10 -10 -10 -11 -10 -10 -10 -10 -9 -9 -9 -9 -10 -10 -9 -9 -10 -9 -10 -10 -10 -10 -10 -10
-16 -16 -16 -16 -16 -16 -16 -16 -16 -16 -15 -15 -14 -13 -12 -11 -11 -11 -10 -11 -11 -11 -10 -10 -11 -11 -10 -10 -9 -10 -10 -10 -9 -10 -10 -9 -10 -10 -10 -10 -10 -10 -10 -10 -10
-17 -17 -17 -17 -16 -16 -16 -16 -16 -16 -15 -15 -15 -14 -13 -11 -11 -11 -10 -10 -11 -11 -11 -11 -12 -12 -10 -11 -11 -9 -10 -9 -9 -10 -10 -10 -10 -10 -10 -10 -10 -10 -10 -10 -10
-18 -17 -17 -18 -18 -17 -17 -16 -16 -16 -16 -15 -15 -14 -13 -12 -12 -12 -11 -11 -11 -11 -11 -12 -11 -12 -11 -11 -11 -11 -11 -9 -10 -10 -10 -10 -10 -10 -10 -10 -10 -10 -10 -10 -10
-18 -18 -18 -19 -18 -18 -17 -17 -16 -16 -16 -15 -15 -14 -14 -13 -13 -12 -12 -11 -12 -12 -12 -11 -12 -12 -12 -11 -11 -11 -11 -10 -10 -10 -10 -10 -10 -10 -10 -10 -10 -10 -10 -10 -10
-18 -18 -18 -19 -18 -18 -18 -17 -17 -17 -16 -16 -15 -15 -14 -13 -13 -12 -12 -12 -11 -12 -12 -12 -11 -12 -12 -12 -12 -12 -12 -10 -10 -10 -10 -10 -10 -10 -10 -10 -10 -10 -10 -10 -10
-19 -18 -18 -19 -18 -18 -18 -18 -17 -17 -16 -16 -15 -15 -14 -13 -13 -13 -12 -12 -12 -12 -12 -12 -12 -12 -12 -12 -12 -12 -12 -11 -10 -10 -11 -10 -10 -10 -10 -10 -10 -10 -10 -10 -10
-18 -18 -18 -18 -18 -18 -18 -18 -17 -17 -17 -16 -15 -15 -14 -13 -13 -13 -13 -12 -13 -13 -12 -12 -12 -12 -11 -12 -11 -11 -12 -11 -10 -10 -11 -10 -11 -10 -10 -10 -10 -10 -10 -10 -10
-19 -19 -18 -18 -19 -18 -18 -18 -18 -17 -17 -16 -15 -14 -14 -14 -14 -13 -13 -13 -13 -12 -12 -12 -12 -11 -12 -12 -13 -14 -13 -12 -11 -11 -11 -11 -11 -10 -10 -10 -10 -10 -10 -10 -10
-18 -19 -19 -18 -18 -18 -18 -17 -17 -16 -16 -16 -15 -16 -16 -14 -15 -13 -13 -13 -12 -12 -13 -13 -12 -12 -12 -13 -13 -14 -13 -12 -12 -12 -11 -11 -11 -11 -10 -10 -10 -10 -10 -10 -10
-19 -19 -19 -19 -18 -17 -17 -17 -19 -19 -18 -18 -17 -16 -16 -15 -15 -15 -14 -13 -13 -14 -14 -12 -12 -12 -13 -13 -13 -14 -13 -13 -12 -12 -12 -12 -11 -11 -11 -10 -10 -10 -10 -10 -10
-19 -19 -19 -19 -18 -18 -18 -18 -19 -19 -19 -18 -18 -17 -18 -17 -16 -16 -15 -15 -14 -13 -13 -14 -14 -14 -14 -13 -13 -14 -14 -13 -13 -13 -12 -12 -11 -11 -11 -10 -10 -10 -10 -10 -10
-20 -19 -19 -19 -18 -18 -19 -19 -18 -20 -19 -18 -19 -18 -18 -18 -17 -15 -16 -15 -14 -14 -14 -13 -14 -14 -13 -12 -14 -15 -14 -14 -14 -13 -13 -12 -11 -11 -11 -10 -10 -10 -10 -10 -10
-19 -19 -19 -19 -19 -19 -19 -19 -18 -20 -19 -18 -18 -18 -19 -18 -17 -17 -17 -17 -16 -16 -16 -16 -16 -15 -14 -16 -15 -17 -15 -14 -15 -14 -13 -12 -12 -10 -11 -10 -11 -11 -11 -11 -11
-19 -19 -18 -19 -19 -19 -19 -19 -19 -19 -18 -18 -17 -18 -18 -18 -17 -17 -17 -16 -16 -15 -15 -15 -16 -15 -16 -15 -16 -16 -17 -15 -15 -14 -12 -12 -12 -10 -11 -11 -11 -11 -11 -11 -11
-19 -19 -19 -19 -19 -18 -19 -19 -18 -17 -17 -17 -18 -18 -18 -18 -19 -18 -17 -17 -17 -15 -15 -14 -15 -14 -15 -15 -14 -15 -16 -15 -14 -13 -12 -13 -12 -11 -12 -12 -12 -12 -11 -11 -11
-19 -19 -19 -19 -19 -18 -19 -18 -17 -17 -17 -18 -19 -19 -18 -19 -18 -18 -17 -16 -16 -16 -15 -15 -15 -16 -16 -16 -17 -15 -16 -16 -15 -14 -13 -13 -12 -12 -12 -12 -12 -12 -12 -12 -11
-21 -19 -19 -19 -19 -19 -18 -17 -17 -17 -18 -19 -19 -18 -17 -18 -18 -18 -17 -17 -16 -16 -17 -16 -17 -17 -17 -17 -18 -17 -17 -18 -16 -15 -14 -13 -12 -12 -12 -12 -12 -12 -12 -12 -12
-20 -20 -20 -19 -19 -19 -18 -18 -18 -18 -18 -19 -19 -19 -18 -18 -18 -17 -17 -17 -17 -17 -17 -17 -17 -17 -17 -17 -18 -18 -17 -18 -17 -16 -15 -14 -12 -12 -12 -12 -13 -13 -12 -12 -12
-20 -20 -20 -19 -20 -19 -18 -18 -19 -19 -19 -20 -20 -20 -19 -18 -19 -18 -17 -17 -18 -18 -17 -18 -18 -18 -17 -18 -18 -18 -18 -18 -17 -16 -15 -15 -13 -13 -13 -13 -13 -13 -13 -13 -13
-21 -21 -20 -20 -19 -19 -19 -19 -19 -19 -19 -20 -20 -20 -20 -19 -20 -19 -19 -19 -19 -19 -18 -18 -18 -18 -18 -18 -19 -18 -18 -18 -17 -16 -16 -16 -13 -13 -13 -13 -13 -13 -13 -14 -13
-22 -20 -20 -20 -20 -19 -19 -19 -19 -19 -19 -19 -20 -20 -20 -20 -19 -20 -20 -19 -19 -19 -20 -19 -19 -19 -18 -16 -17 -17 -18 -18 -18 -17 -16 -15 -14 -14 -14 -14 -15 -15 -14 -14 -13
-22 -22 -21 -21 -20 -20 -19 -20 -19 -20 -20 -19 -19 -20 -20 -20 -20 -19 -20 -19 -19 -19 -20 -19 -18 -18 -18 -18 -19 -19 -19 -19 -19 -18 -17 -15 -15 -15 -15 -15 -15 -15 -14 -14 -14
-22 -22 -22 -21 -20 -20 -20 -20 -20 -20 -20 -19 -19 -20 -20 -20 -19 -19 -19 -19 -19 -19 -20 -19 -18 -18 -19 -19 -19 -19 -20 -19 -18 -17 -17 -15 -15 -15 -15 -15 -15 -15 -15 -15 -14
-22 -23 -23 -22 -21 -21 -20 -20 -20 -20 -20 -20 -20 -20 -20 -20 -20 -20 -20 -21 -20 -20 -20 -20 -19 -20 -19 -19 -19 -19 -17 -18 -17 -17 -16 -16 -13 -16 -16 -15 -15 -16 -16 -16 -16
Height
5634 5645 5657 5666 5677 5686 5694 5704 5713 5722 5732 5744 5749 5756 5763 5770 5775 5781 5786 5789 5793 5796 5802 5806 5811 5817 5823 5829 5832 5836 5839 5841 5846 5849 5853 5856 5858 5861 5865 5866 5868 5869 5872 5874 5874
5623 5634 5645 5658 5668 5678 5686 5697 5704 5716 5725 5734 5743 5750 5756 5763 5768 5774 5781 5784 5786 5791 5796 5802 5804 5811 5816 5821 5827 5831 5836 5840 5845 5846 5851 5854 5855 5859 5863 5865 5867 5870 5871 5874 5875
5612 5622 5634 5646 5659 5671 5679 5689 5698 5706 5717 5726 5735 5743 5748 5754 5760 5767 5774 5778 5782 5785 5790 5796 5800 5805 5811 5820 5823 5827 5833 5836 5842 5844 5849 5852 5854 5857 5861 5864 5866 5869 5871 5873 5875
5603 5613 5623 5635 5647 5661 5670 5680 5690 5699 5711 5719 5728 5735 5741 5748 5757 5760 5766 5772 5776 5783 5786 5790 5795 5799 5805 5811 5816 5822 5828 5831 5837 5841 5846 5850 5852 5855 5860 5862 5864 5867 5870 5871 5873
5595 5606 5615 5625 5637 5649 5660 5671 5682 5693 5702 5713 5721 5727 5735 5743 5749 5754 5759 5763 5770 5778 5782 5785 5789 5793 5796 5803 5808 5814 5822 5826 5832 5836 5840 5845 5849 5854 5856 5860 5861 5866 5867 5870 5872
5589 5598 5608 5617 5630 5639 5651 5661 5674 5685 5696 5706 5714 5721 5729 5737 5738 5745 5752 5759 5764 5772 5776 5780 5783 5786 5789 5793 5802 5810 5815 5819 5828 5832 5836 5841 5846 5851 5854 5857 5860 5863 5864 5867 5870
5582 5590 5600 5611 5622 5632 5642 5654 5663 5677 5689 5698 5706 5714 5722 5725 5732 5740 5746 5751 5756 5764 5771 5773 5774 5781 5785 5789 5795 5800 5808 5815 5822 5826 5830 5833 5839 5846 5849 5854 5857 5861 5862 5866 5868
5577 5586 5594 5603 5615 5624 5635 5647 5654 5667 5676 5688 5697 5707 5713 5721 5727 5734 5740 5745 5749 5758 5765 5763 5768 5774 5781 5787 5788 5793 5802 5808 5815 5818 5824 5828 5837 5841 5846 5851 5854 5858 5860 5863 5865
5570 5581 5588 5599 5608 5618 5626 5640 5647 5660 5667 5678 5690 5700 5706 5717 5723 5727 5733 5740 5745 5750 5755 5758 5762 5769 5772 5777 5781 5785 5795 5802 5808 5812 5819 5824 5829 5835 5842 5847 5851 5854 5857 5860 5862
5564 5575 5585 5594 5602 5610 5618 5630 5639 5650 5658 5670 5676 5689 5704 5712 5715 5721 5725 5732 5736 5741 5745 5752 5755 5761 5769 5774 5775 5780 5789 5796 5803 5809 5813 5819 5825 5832 5837 5841 5846 5851 5853 5856 5858
5562 5571 5579 5587 5596 5603 5610 5619 5632 5643 5657 5671 5680 5685 5694 5698 5706 5714 5717 5724 5728 5735 5743 5747 5752 5761 5765 5768 5772 5778 5786 5792 5798 5802 5807 5815 5821 5826 5830 5835 5841 5848 5850 5852 5854
5555 5565 5573 5581 5589 5598 5608 5621 5636 5647 5647 5654 5665 5673 5682 5687 5696 5702 5710 5718 5725 5730 5733 5737 5747 5753 5757 5762 5766 5772 5780 5785 5792 5797 5803 5809 5814 5819 5823 5829 5834 5840 5844 5848 5850
5549 5558 5567 5575 5583 5592 5606 5618 5623 5633 5640 5650 5656 5662 5672 5679 5686 5696 5703 5709 5716 5720 5724 5731 5742 5743 5746 5755 5761 5766 5774 5781 5787 5792 5794 5800 5804 5808 5815 5821 5826 5833 5840 5841 5845
5542 5552 5561 5569 5581 5590 5597 5603 5614 5622 5631 5639 5647 5657 5664 5671 5674 5687 5692 5700 5706 5715 5718 5721 5728 5733 5742 5753 5757 5761 5771 5773 5777 5781 5787 5793 5798 5802 5809 5817 5819 5826 5831 5836 5840
5536 5546 5554 5566 5573 5582 5589 5595 5604 5610 5618 5630 5636 5645 5653 5665 5671 5679 5685 5691 5700 5708 5713 5718 5720 5728 5736 5746 5748 5756 5762 5767 5772 5775 5780 5785 5789 5797 5801 5807 5813 5821 5827 5832 5835
5531 5540 5547 5553 5565 5576 5578 5587 5593 5599 5604 5617 5626 5635 5645 5656 5663 5670 5679 5684 5690 5697 5704 5711 5718 5723 5732 5735 5740 5747 5754 5759 5761 5766 5768 5779 5782 5790 5794 5803 5811 5814 5819 5824 5829
5522 5529 5538 5548 5559 5560 5567 5576 5581 5587 5603 5612 5621 5630 5641 5647 5652 5661 5671 5677 5685 5691 5697 5705 5711 5718 5723 5726 5732 5736 5745 5749 5751 5753 5761 5770 5771 5781 5786 5793 5800 5805 5809 5815 5820
5514 5525 5530 5541 5545 5550 5560 5566 5573 5588 5595 5603 5612 5623 5630 5638 5644 5655 5662 5668 5677 5686 5693 5697 5702 5709 5715 5719 5726 5729 5736 5738 5740 5747 5755 5757 5757 5765 5779 5786 5793 5798 5803 5808 5813
5506 5516 5524 5529 5532 5544 5551 5558 5573 5582 5587 5594 5602 5611 5619 5630 5638 5645 5656 5667 5672 5678 5686 5691 5698 5705 5709 5712 5717 5721 5725 5737 5739 5743 5748 5752 5759 5764 5777 5782 5788 5791 5795 5800 5804
5497 5505 5514 5521 5528 5535 5543 5554 5563 5572 5578 5583 5594 5603 5612 5623 5628 5637 5649 5658 5665 5672 5679 5686 5691 5698 5702 5707 5709 5715 5725 5726 5728 5733 5738 5743 5750 5755 5767 5775 5781 5785 5789 5792 5795
5490 5498 5504 5514 5521 5525 5537 5548 5557 5565 5571 5578 5586 5597 5607 5616 5624 5631 5642 5650 5658 5663 5670 5677 5683 5691 5694 5696 5704 5709 5709 5714 5723 5728 5730 5737 5744 5753 5760 5769 5773 5777 5781 5783 5785
5478 5482 5494 5506 5510 5521 5530 5541 5549 5555 5564 5572 5581 5591 5601 5611 5617 5625 5634 5644 5651 5658 5663 5668 5675 5680 5688 5692 5697 5700 5705 5712 5715 5721 5724 5728 5737 5745 5752 5760 5764 5768 5770 5772 5774
5471 5478 5488 5494 5498 5514 5523 5532 5542 5549 5557 5566 5574 5583 5593 5600 5610 5618 5627 5638 5644 5650 5656 5661 5666 5671 5677 5683 5687 5689 5696 5703 5708 5713 5716 5721 5731 5738 5742 5748 5753 5756 5758 5760 5763
5466 5470 5480 5485 5500 5508 5518 5526 5534 5543 5550 5558 5567 5575 5585 5591 5601 5610 5619 5628 5635 5643 5650 5653 5658 5665 5671 5679 5684 5685 5690 5695 5699 5702 5710 5712 5725 5730 5734 5738 5743 5744 5745 5750 5753
5452 5459 5466 5476 5489 5501 5511 5521 5527 5536 5544 5551 5559 5568 5577 5586 5594 5601 5609 5620 5628 5634 5638 5643 5648 5655 5661 5667 5672 5677 5683 5687 5689 5697 5697 5710 5711 5723 5726 5728 5730 5732 5735 5739 5741
5441 5452 5460 5472 5484 5493 5500 5512 5522 5529 5538 5545 5553 5561 5569 5578 5589 5597 5605 5611 5619 5625 5629 5635 5639 5644 5650 5656 5661 5665 5671 5673 5679 5685 5686 5695 5699 5710 5714 5715 5720 5723 5724 5728 5731
5433 5444 5454 5464 5476 5485 5492 5505 5515 5523 5531 5540 5548 5555 5563 5570 5580 5589 5596 5604 5611 5618 5623 5628 5632 5637 5641 5647 5650 5651 5664 5666 5672 5676 5682 5682 5699 5702 5702 5707 5709 5708 5710 5715 5719
Wind_Speed
81 74 71 66 66 66 60 64 48 50 52 55 54 53 52 49 45 42 37 38 34 30 32 30 43 50 46 43 37 39 40 35 31 29 28 26 24 22 20 18 18 18 16 17 16
63 75 72 67 60 61 61 57 62 46 49 53 55 55 56 53 48 47 43 39 38 33 32 32 39 47 48 49 42 41 41 37 33 31 28 28 27 26 23 21 19 18 17 16 15
55 58 68 72 61 55 53 53 50 55 44 47 55 56 56 53 52 49 47 47 34 37 36 32 29 43 49 50 49 43 43 41 34 33 31 30 29 27 24 22 21 20 18 16 16
50 51 57 60 67 65 51 46 47 45 48 45 52 54 58 56 53 50 47 48 38 42 39 31 29 31 39 48 50 42 44 44 40 36 32 32 31 28 26 26 24 22 19 18 18
50 47 53 56 58 60 62 54 45 42 45 42 45 51 55 56 53 51 51 51 46 43 38 35 37 34 33 38 37 56 49 49 44 39 36 36 33 30 30 29 27 23 20 18 17
47 49 50 56 58 56 56 56 54 45 43 50 45 49 51 54 53 51 50 49 50 47 39 36 35 40 26 37 40 47 54 53 45 41 38 38 35 33 31 30 29 26 23 20 19
29 46 51 58 60 60 59 55 51 49 45 44 47 49 49 52 52 52 51 48 45 46 40 41 33 38 27 38 37 52 57 54 47 44 42 41 39 36 34 32 30 26 23 22 20
32 35 48 56 60 62 60 59 54 53 49 44 43 45 52 52 51 51 50 49 48 49 47 41 36 45 40 21 44 60 59 56 51 48 45 44 37 38 35 33 29 27 25 24 22
36 36 44 58 60 63 63 63 60 59 54 53 44 46 51 49 51 51 51 49 51 50 50 46 44 35 38 32 37 62 60 58 54 50 47 44 42 40 37 34 31 29 28 25 23
44 39 46 52 57 59 64 65 64 64 62 59 55 51 44 47 52 52 51 50 54 51 50 49 41 36 41 31 28 59 62 58 55 51 49 46 42 41 38 36 35 33 30 28 24
42 46 44 45 53 57 62 67 66 61 59 51 46 48 50 51 54 56 54 54 55 52 51 48 44 36 36 26 38 57 56 55 54 52 50 46 45 43 41 40 36 35 33 30 27
53 49 54 47 47 56 57 58 58 51 53 59 57 56 56 57 55 57 57 59 58 58 51 53 44 41 40 27 42 55 55 56 54 52 51 50 48 46 45 42 40 40 37 33 31
53 49 52 48 46 51 55 57 59 58 58 56 58 59 59 59 56 57 55 56 62 51 50 52 44 48 43 37 39 58 56 54 55 53 53 53 53 52 50 47 45 42 40 36 34
54 55 55 54 56 47 41 65 59 65 61 58 58 59 54 56 57 59 54 50 53 52 47 48 47 44 39 43 41 59 55 52 55 56 57 55 56 53 50 49 47 45 43 38 36
56 51 53 51 54 48 46 46 60 64 67 62 58 60 63 56 55 60 54 51 49 48 47 47 46 46 44 46 48 54 49 47 49 51 55 56 58 55 55 53 49 46 42 39 39
57 60 52 51 52 49 49 52 53 65 76 71 61 60 60 59 58 57 53 49 46 44 43 42 40 43 42 46 51 42 42 45 48 52 58 57 58 58 56 51 46 47 45 43 40
58 48 55 55 44 54 51 54 58 62 65 70 63 59 59 58 60 60 58 53 49 48 47 46 42 42 44 44 54 56 41 46 51 56 60 58 60 60 57 54 50 50 47 44 42
52 47 53 51 52 51 52 56 55 51 54 58 67 61 62 64 58 55 58 55 49 47 46 48 48 48 48 50 47 58 48 52 57 58 59 60 66 64 56 54 50 48 48 47 44
44 50 51 53 60 59 56 46 38 46 46 57 61 60 62 62 59 60 57 54 51 49 48 46 44 42 48 46 47 49 57 46 49 54 55 59 59 58 54 52 48 46 46 44 45
58 52 45 55 55 51 59 48 49 47 47 54 61 58 62 62 61 59 57 56 52 49 46 45 44 43 46 45 44 50 46 47 51 54 55 58 60 61 55 51 47 46 45 44 45
55 56 57 57 49 54 44 42 43 51 47 54 57 57 60 61 60 60 58 56 54 52 50 49 45 45 44 51 46 47 53 51 47 50 51 55 60 57 52 48 45 44 45 46 46
69 61 56 57 54 55 46 48 50 49 47 51 55 59 55 59 58 60 58 55 53 51 52 51 49 45 43 45 46 48 42 43 46 49 51 52 52 52 52 46 41 40 42 43 46
55 60 60 56 57 55 52 47 52 52 52 47 54 54 57 50 55 57 55 53 54 50 51 51 51 50 48 47 46 48 51 44 45 45 48 48 53 49 49 45 44 42 40 39 40
66 64 70 67 53 52 56 53 54 49 52 53 50 54 51 55 52 56 52 52 52 50 48 48 51 51 49 42 43 46 49 48 45 47 48 50 48 44 42 40 35 35 38 39 40
69 64 63 62 58 56 54 51 52 51 49 50 52 53 54 53 56 53 55 51 52 49 51 51 53 50 50 47 43 42 41 46 46 45 45 48 51 42 41 38 37 38 38 40 40
66 58 53 59 58 60 58 50 46 48 47 46 47 52 53 56 53 51 53 53 53 55 54 55 55 52 52 51 51 51 44 46 53 54 57 59 58 48 44 48 49 49 48 45 43
67 64 58 58 56 54 52 49 46 44 43 46 44 47 50 52 52 53 53 48 40 49 53 54 53 52 52 49 48 50 47 52 51 53 53 57 46 49 52 52 51 49 46 44 42
Wind_Direction
236 236 231 227 226 226 226 228 224 224 223 215 216 214 217 215 214 206 204 219 221 227 243 248 207 207 211 208 208 206 209 210 198 196 198 189 183 180 179 169 165 154 147 144 135
233 237 236 231 229 228 224 228 224 225 222 218 217 216 216 216 213 209 205 221 220 226 240 255 211 208 208 207 210 209 209 209 201 199 204 195 189 185 184 176 173 158 157 151 146
225 226 234 236 230 230 228 228 229 225 223 219 216 219 218 218 216 212 209 207 223 221 231 240 241 209 213 210 219 210 207 209 202 201 207 201 197 191 186 182 176 169 166 161 157
219 218 219 222 234 228 226 228 226 222 228 215 216 219 219 219 219 212 208 203 225 221 226 231 238 209 210 215 220 209 208 209 202 201 205 209 200 195 189 183 182 179 177 167 166
214 214 210 205 212 221 226 224 218 224 224 215 215 220 221 220 220 218 211 211 209 211 223 232 246 257 204 227 222 218 206 211 202 198 201 210 202 198 193 187 189 187 181 177 176
206 213 211 204 200 202 207 223 226 229 223 228 212 219 223 221 222 220 218 213 213 211 223 228 237 239 235 223 219 222 204 210 201 200 198 208 203 200 198 195 193 191 188 188 186
200 206 206 199 197 194 197 205 214 221 215 213 209 212 221 226 223 221 221 217 218 210 217 225 225 244 249 220 220 210 204 208 200 200 200 204 202 198 200 200 197 199 195 194 190
194 203 204 197 198 195 196 198 200 205 203 203 209 210 218 224 224 225 220 218 215 208 219 222 230 241 244 243 223 206 202 206 201 200 201 203 199 201 200 204 207 201 201 197 194
194 206 204 198 197 197 195 199 200 202 200 198 205 208 218 220 227 227 224 219 211 212 218 225 220 234 250 244 241 202 199 207 203 202 202 201 199 202 202 205 210 204 203 203 197
191 201 198 202 201 200 198 201 204 205 203 199 194 207 212 219 225 226 221 218 213 218 217 219 214 230 247 264 241 210 202 205 207 205 202 202 202 205 207 206 206 210 208 206 206
199 199 203 198 203 204 204 203 204 202 202 206 208 208 214 218 220 227 218 217 213 214 217 219 218 229 244 245 214 201 212 208 210 208 206 206 206 207 210 211 209 211 213 213 214
186 199 199 207 205 207 207 212 208 210 207 203 203 206 211 210 220 223 222 216 215 214 214 217 214 221 227 226 215 205 214 209 212 211 213 210 209 212 212 212 210 214 216 218 222
193 205 203 210 210 204 213 213 211 210 212 217 212 207 209 212 215 223 224 225 222 229 231 219 219 217 217 223 226 209 213 213 213 216 216 213 212 213 214 214 215 214 220 222 225
203 204 204 196 209 209 206 206 210 208 214 216 215 218 215 216 210 222 218 219 220 229 225 222 220 224 226 225 228 214 214 217 215 216 218 219 217 217 217 218 219 219 221 220 224
199 200 206 209 210 208 202 210 210 210 213 213 214 219 218 219 212 217 218 216 216 224 227 224 223 222 218 222 224 212 217 221 221 221 222 221 223 216 219 220 221 226 223 222 223
198 202 196 199 203 209 209 214 218 215 217 216 218 219 217 213 211 214 218 216 213 213 216 220 219 218 213 212 214 210 222 221 224 223 223 222 226 218 223 224 224 229 228 225 225
189 190 211 207 212 209 209 216 215 219 219 216 219 222 218 210 213 212 216 214 214 215 218 217 212 219 214 215 216 209 215 223 225 224 224 222 225 223 223 227 226 227 229 229 228
186 191 201 206 211 207 215 215 216 224 218 220 223 218 217 214 211 212 213 212 212 214 221 222 217 217 214 217 225 216 213 224 227 225 225 224 225 226 229 227 229 233 235 234 235
185 199 202 203 208 212 215 210 215 217 227 219 217 214 214 215 210 212 215 215 212 214 218 221 224 225 219 213 218 222 219 226 232 234 231 232 230 235 231 236 234 236 240 241 240
191 195 198 207 209 212 217 217 223 219 223 216 219 218 217 217 209 210 216 211 212 213 217 222 222 222 219 216 217 224 227 224 229 234 233 230 232 236 235 237 240 240 241 243 244
182 203 204 197 205 212 213 209 217 219 220 216 218 216 216 216 214 211 216 210 212 214 214 219 220 222 223 220 219 223 224 220 226 235 237 237 234 234 240 241 243 246 246 246 246
196 192 189 203 209 208 216 214 216 216 219 219 219 216 217 216 216 216 216 217 214 217 217 218 217 220 225 229 228 219 227 233 238 237 238 240 238 240 243 240 243 248 248 245 246
197 209 203 202 213 211 214 217 216 220 222 221 219 216 214 213 217 219 218 218 219 219 220 222 221 221 224 225 225 229 223 228 235 238 240 241 236 239 242 244 242 243 245 246 247
196 194 199 208 206 212 215 219 218 222 224 223 220 219 217 216 217 218 216 219 223 219 222 226 229 229 234 243 236 236 231 228 237 238 238 238 235 239 242 246 244 241 241 244 248
191 201 206 206 211 213 220 221 219 221 222 223 225 222 222 217 221 221 215 217 219 220 221 224 229 230 232 233 229 235 239 235 238 239 245 234 237 236 240 239 237 239 242 242 244
198 197 200 198 209 211 213 210 216 221 217 220 223 226 226 225 223 226 224 222 219 219 223 227 232 232 232 234 235 230 231 234 234 234 236 236 233 234 238 243 246 248 249 249 249
197 201 204 200 209 215 217 212 213 218 220 221 224 228 227 228 226 222 221 223 223 226 227 230 235 236 239 240 242 241 244 244 243 240 245 246 250 238 241 244 247 245 244 244 246